Valle del Fuerte International Airport

Jump to: basic info | weather | frequencies | runways | comments

Related pages: nearby airports | nearby navaids | notams | map

Basic information (top)

Codes: LMM MMLM
Location: lon 25.685200, lat -109.081001, elev 16 ft / 5 m msl
Status: medium_airport
Scheduled airline service: yes
Links: Wikipedia Mobile

Weather (top)

Current conditions (rec'd 2014/07/29 21:46Z):

MMLM 292146Z 27016KT 12SM SKC 35/20 A2984 RMK ISOL CU-CI

Airport forecast (rec'd 2014/07/29 18:12Z):

TAF TAF MMLM 291710Z 2918/3018 28012KT P6SM SCT020 SCT100 BKN230 
     FM292300 24010KT P6SM SCT020CB BKN100 BKN230 
     FM300300 28010KT P6SM BKN025CB OVC100 
      TEMPO 3005/3009 4SM TSRA 
     FM301200 00000KT P6SM SCT020 BKN100 BKN230 
     FM301600 22010KT P6SM SCT015 BKN250

Frequencies (top)

Verify before use: may be inaccurate or out of date.

TWR: 118.8 MHz (MOCHIS TWR)

Runways (top)

09/27: 6,562 x 148 ft (2,000 x 45 m) — paved — lighted

Latest comments (top)

No comments yet for Valle del Fuerte International Airport

More... (top)

See also NOTAMs and nearby airports and navaids, or visit the Valle del Fuerte International Airport page at the main OurAirports website..